Wind_Speed
23 26 34 36 34 27 22 18 14 11 8 6 7 8 9 10 12 14 14 16 17 17 16 17 15 15 12 13 11 11 11 11 9 15 15 28 26 17 9 9 5 20 23 20 15 19 17
24 24 27 34 37 34 27 23 18 15 12 8 9 9 9 11 12 14 15 16 19 19 17 17 17 14 13 14 13 11 12 11 10 12 19 17 21 25 11 14 4 7 9 22 21 17 14
26 26 26 30 32 37 33 28 23 18 16 13 10 11 11 11 13 15 16 17 18 18 17 15 15 16 14 10 10 10 11 11 11 11 12 17 14 25 16 25 28 13 27 16 22 8 11
27 27 27 28 30 32 37 33 28 23 19 17 14 13 13 13 13 15 17 18 18 17 16 15 15 15 11 14 13 10 10 10 12 11 14 15 17 24 13 16 13 24 23 10 21 5 22
31 28 28 28 28 32 34 37 34 28 23 21 18 15 16 16 16 17 17 18 18 17 16 15 16 16 13 14 13 11 10 10 12 12 11 12 13 22 18 9 10 11 15 5 13 16 25
34 29 29 28 29 31 34 35 36 32 28 25 23 19 18 18 18 18 19 19 19 18 17 16 16 16 16 14 13 12 10 10 13 14 13 11 15 21 5 6 2 6 4 6 3 4 13
35 32 29 29 30 31 34 36 35 34 31 29 26 24 21 21 20 21 21 21 20 19 19 17 18 18 13 14 14 12 11 11 11 11 12 8 5 5 7 16 18 18 8 4 10 11 7
34 35 31 29 28 30 35 36 36 35 34 32 29 27 25 23 23 22 22 21 18 13 17 18 19 17 16 16 14 13 12 11 11 12 10 8 6 6 14 8 17 6 5 4 10 7 13
29 34 35 31 29 28 33 36 34 35 35 34 32 30 28 26 25 25 23 21 21 21 21 21 18 17 15 15 14 14 12 12 12 12 12 9 1 9 9 8 4 4 3 13 11 4 13
28 31 34 35 32 29 29 35 33 34 33 35 34 32 31 28 27 26 26 24 22 22 21 21 19 17 15 16 15 14 13 13 12 12 12 12 9 9 8 6 9 1 22 13 7 1 7
28 30 33 36 36 33 31 32 34 34 32 35 35 34 33 31 30 29 24 25 23 23 20 23 21 19 18 17 16 15 15 14 13 13 10 6 9 7 6 6 7 13 2 7 11 5 9
26 30 33 35 38 37 35 33 34 34 34 34 34 35 34 32 31 27 27 26 25 24 20 24 21 19 19 18 16 16 15 15 15 13 12 7 7 6 6 4 5 7 8 17 17 11 3
21 28 33 35 36 40 40 37 35 35 35 35 35 36 35 35 32 29 28 28 27 27 22 23 19 20 19 19 17 15 16 15 14 13 9 8 7 6 5 6 7 9 15 10 11 8 6
23 26 29 34 37 38 41 43 40 38 36 37 35 37 37 36 34 33 32 31 31 23 20 19 22 20 20 20 19 18 17 17 17 16 8 6 7 7 7 8 9 5 4 3 5 3 7
27 29 31 31 34 39 40 41 45 42 39 37 37 37 38 38 37 35 34 34 28 21 12 15 24 24 19 21 20 19 19 19 17 15 10 5 10 8 8 8 8 5 5 10 6 1 4
32 33 32 34 34 35 38 41 42 46 44 40 38 39 39 40 40 38 37 34 30 29 26 24 19 21 19 20 21 22 21 20 20 17 19 18 16 24 11 10 8 5 4 8 1 4 4
35 36 37 34 35 35 36 37 41 43 47 45 42 40 43 40 42 41 39 34 32 40 40 36 23 14 20 18 22 22 21 20 22 22 22 16 14 18 12 11 7 1 5 4 2 4 5
35 35 37 38 36 35 36 37 37 41 43 46 46 43 42 42 43 41 40 35 37 42 39 32 30 28 15 21 21 24 22 21 24 25 24 21 13 18 12 11 15 19 15 12 3 4 7
32 32 34 37 37 36 35 35 36 38 40 42 44 46 45 44 43 42 40 38 39 41 37 29 30 29 24 18 22 23 20 18 29 26 25 24 21 14 9 15 12 12 13 14 6 3 9
30 32 30 32 38 36 35 35 34 35 37 38 40 43 48 46 44 44 41 39 40 43 35 36 33 33 33 26 22 22 21 27 33 28 29 28 25 17 13 14 13 17 14 14 10 6 7
28 29 30 32 30 38 36 35 34 34 33 35 36 38 37 49 46 43 43 44 43 45 35 36 36 37 32 30 24 25 24 32 33 29 30 29 30 22 16 13 14 12 11 11 11 12 13
24 26 30 29 26 42 37 35 35 34 34 32 34 40 47 48 50 47 45 44 45 42 39 37 37 34 34 26 26 23 21 28 32 32 31 30 33 25 24 15 20 16 14 14 13 12 14
23 22 24 27 24 31 36 37 36 35 35 36 39 36 41 45 49 51 48 45 45 43 42 38 37 35 35 29 19 20 27 25 30 30 31 32 34 27 19 19 20 20 18 17 17 16 16
23 22 18 22 22 20 39 37 37 37 35 36 35 30 32 34 36 44 48 48 47 47 43 43 39 40 32 34 32 28 25 20 25 27 34 33 37 23 20 19 25 16 15 24 25 23 17
22 22 19 20 20 22 38 36 37 37 35 35 35 34 32 32 36 28 40 44 46 50 48 47 46 44 39 40 37 28 27 25 26 24 26 27 32 24 24 23 22 18 19 30 32 29 27
20 20 19 20 18 21 21 38 36 37 36 34 36 35 32 31 36 35 30 41 53 54 50 49 46 45 43 43 40 34 31 29 31 33 32 23 24 30 30 28 26 21 30 31 34 32 32
18 19 20 21 22 20 19 38 34 36 35 33 34 36 33 33 36 36 36 35 50 53 48 44 47 44 42 43 44 30 31 28 32 43 48 41 38 30 29 30 27 27 33 42 38 38 37
19 20 22 19 22 21 21 36 32 34 35 33 31 34 36 34 37 38 41 40 43 52 52 46 40 50 46 42 44 34 31 29 35 31 30 38 42 47 38 28 29 36 38 41 43 40 36
19 23 18 16 22 23 22 36 30 32 34 33 31 31 33 35 37 31 28 27 28 34 47 52 53 33 48 43 47 39 32 28 39 41 38 43 36 40 38 33 37 42 45 47 42 38 39
Wind_Direction
226 224 221 218 220 218 210 204 195 195 189 185 184 170 178 181 179 176 171 166 164 162 157 155 155 147 147 141 136 119 111 105 96 99 97 111 119 103 44 100 10 48 51 42 50 67 66
224 220 218 220 220 219 217 209 205 200 198 193 190 185 174 177 178 179 179 177 170 168 166 163 165 165 159 151 140 134 120 115 107 102 102 102 111 99 67 72 94 61 70 26 35 44 84
223 221 218 217 220 219 220 217 211 208 204 200 198 195 183 174 179 180 183 183 178 174 170 171 168 167 165 157 147 133 123 120 112 109 96 111 95 99 81 47 38 22 40 55 356 179 27
222 222 220 217 218 217 219 221 217 216 211 206 204 200 194 181 177 177 179 182 182 182 178 177 174 171 167 161 160 156 136 127 118 119 118 113 110 87 92 46 31 346 35 49 327 31 43
219 220 221 220 219 218 216 220 225 221 217 213 207 203 201 193 184 179 178 180 181 185 187 185 183 182 183 173 166 163 154 136 124 123 121 118 109 77 63 18 44 302 0 5 335 12 26
218 219 220 221 220 217 217 217 221 224 219 218 212 206 204 202 195 189 186 187 188 189 190 190 189 186 184 184 178 171 167 153 140 144 143 138 100 61 352 20 127 169 295 307 345 21 359
221 220 219 221 221 219 218 218 218 221 219 218 218 212 206 205 204 200 196 194 195 193 194 194 195 194 188 186 187 183 176 167 153 156 153 136 96 74 310 226 184 182 171 358 315 360 114
222 221 221 222 223 222 219 219 219 220 220 218 218 216 211 206 207 208 205 199 199 204 203 200 198 199 201 197 192 189 186 183 169 169 160 121 25 111 241 206 198 217 68 274 294 347 41
226 224 223 222 224 224 221 222 221 219 219 216 218 218 216 210 208 209 210 207 206 203 202 205 209 209 206 204 200 195 191 194 187 177 161 163 184 237 196 194 177 9 268 257 278 317 7
228 228 227 226 225 224 224 224 224 220 219 216 217 218 218 215 213 211 209 213 210 211 212 210 212 214 207 206 205 204 200 199 198 189 178 194 194 201 198 209 121 177 253 279 281 254 72
226 230 230 228 226 225 224 225 225 223 221 217 217 216 218 216 214 214 209 213 213 215 215 224 215 215 214 210 212 205 207 207 204 187 193 207 209 206 217 199 236 207 97 59 48 47 87
235 232 233 232 229 227 225 224 226 223 223 218 216 215 216 217 217 214 213 211 214 214 220 228 209 217 218 222 216 218 215 213 209 205 196 213 209 223 224 196 158 122 127 40 32 38 315
242 239 235 236 235 230 227 225 225 225 222 220 218 215 215 216 218 216 216 213 214 215 222 235 214 220 217 222 225 220 217 213 207 202 206 217 234 233 228 178 162 149 52 352 290 259 188
249 243 242 237 234 236 233 226 226 226 224 221 219 216 215 214 215 215 213 213 217 209 220 242 225 219 221 222 224 223 225 215 207 200 182 252 269 265 226 199 177 301 200 1 195 202 244
253 248 244 239 239 232 233 233 227 226 225 222 221 218 215 215 215 214 215 215 211 190 228 245 240 225 222 224 224 226 224 220 211 210 177 239 263 262 241 215 176 196 6 233 157 207 292
255 250 246 243 237 236 233 228 231 228 226 224 221 219 218 216 215 214 215 213 206 197 205 194 228 223 227 225 226 227 223 220 216 202 207 156 235 254 230 220 220 217 156 134 342 246 244
259 252 247 242 240 235 233 232 225 227 228 225 222 220 218 217 217 215 215 212 208 215 214 215 205 222 220 227 223 222 223 222 219 211 213 179 221 251 229 216 199 251 1 153 180 199 204
264 257 248 243 238 236 232 231 229 224 223 226 223 223 217 218 219 218 215 212 212 217 226 219 222 198 219 218 228 220 221 222 224 219 215 213 185 263 247 215 209 199 179 184 245 248 251
270 260 253 244 239 235 232 228 227 225 223 221 221 222 222 220 220 219 216 214 216 221 226 219 219 220 188 215 221 225 213 214 231 219 216 206 184 209 237 230 232 224 219 201 202 235 292
271 267 260 261 232 234 231 228 224 223 222 222 218 217 224 221 221 219 215 216 219 226 221 216 214 214 214 206 202 231 197 224 228 216 217 211 189 188 249 255 263 266 230 232 211 181 217
282 267 262 259 252 226 226 226 223 220 220 218 219 215 220 221 222 222 221 217 216 223 220 222 223 215 214 217 195 222 207 238 231 222 223 214 196 181 202 236 221 231 238 246 243 236 236
291 280 262 273 264 216 220 221 221 218 217 216 210 208 217 217 215 220 221 220 224 220 220 221 222 218 221 218 213 216 224 229 235 222 218 215 209 189 207 218 241 230 233 236 244 256 269
293 290 272 267 263 226 214 218 218 216 214 218 221 222 224 221 216 215 221 221 223 227 219 218 222 219 217 217 205 220 222 222 244 226 217 214 211 202 223 226 241 237 238 244 250 254 259
294 290 277 263 274 264 209 213 217 215 214 216 217 219 217 218 219 219 217 220 222 224 223 221 222 216 202 215 197 209 219 222 227 234 221 218 213 213 223 239 235 241 240 241 241 248 255
289 291 279 268 256 253 211 210 212 215 213 213 213 215 215 211 210 208 219 221 218 225 224 223 223 221 210 214 202 203 203 210 221 218 227 231 226 226 227 238 239 223 258 259 255 261 264
286 290 275 270 240 241 242 204 211 211 213 212 211 213 212 207 215 207 204 228 221 223 226 226 226 227 217 221 207 208 205 208 210 210 205 197 224 234 227 223 230 235 248 241 255 263 267
289 287 281 274 239 232 254 203 207 209 211 213 210 211 210 210 217 209 201 208 221 222 224 229 225 227 228 225 214 214 219 216 228 233 228 206 199 215 230 233 236 238 246 247 254 259 269
299 289 291 265 234 222 244 199 203 206 209 211 211 210 210 211 221 220 219 228 233 222 217 217 224 222 225 221 222 214 212 229 230 233 244 252 237 231 223 226 237 246 247 254 260 266 272
300 300 286 254 233 221 228 199 203 205 207 209 212 212 212 213 224 225 229 235 238 232 228 221 219 219 225 224 220 212 206 223 238 218 231 230 235 241 234 235 238 244 250 258 266 271 273
Height
5888 5891 5896 5901 5905 5910 5913 5917 5919 5922 5923 5925 5926 5928 5928 5930 5932 5934 5935 5938 5940 5942 5943 5945 5946 5948 5949 5950 5952 5951 5951 5952 5952 5952 5954 5950 5955 5961 5965 5963 5961 5956 5955 5954 5953 5951 5951
5884 5888 5891 5896 5901 5906 5911 5914 5917 5920 5923 5924 5925 5927 5928 5929 5931 5934 5936 5938 5940 5942 5944 5945 5947 5948 5949 5951 5952 5952 5953 5954 5954 5955 5953 5955 5956 5957 5965 5962 5961 5958 5958 5957 5956 5954 5951
5881 5884 5888 5892 5897 5901 5906 5911 5914 5917 5921 5923 5925 5926 5928 5929 5931 5933 5936 5937 5940 5943 5944 5946 5947 5949 5950 5953 5953 5953 5954 5955 5956 5957 5958 5957 5957 5956 5965 5965 5963 5960 5961 5959 5961 5932 5959
5876 5880 5884 5888 5892 5896 5901 5906 5911 5915 5918 5921 5924 5925 5927 5929 5931 5933 5935 5938 5940 5942 5944 5946 5948 5949 5951 5953 5954 5955 5956 5957 5958 5959 5958 5959 5960 5960 5962 5966 5967 5964 5967 5966 5963 5966 5958
5872 5875 5879 5883 5887 5892 5897 5902 5907 5911 5915 5918 5921 5923 5926 5928 5931 5933 5935 5937 5940 5942 5943 5946 5948 5949 5951 5953 5955 5956 5957 5958 5959 5960 5961 5961 5962 5963 5967 5969 5972 5974 5972 5976 5967 5962 5957
5868 5872 5875 5879 5883 5887 5891 5897 5902 5907 5911 5914 5918 5921 5924 5927 5929 5932 5934 5936 5939 5941 5944 5945 5947 5950 5951 5954 5955 5956 5958 5959 5960 5960 5962 5963 5965 5964 5969 5976 5977 5981 5979 5976 5974 5973 5966
5864 5868 5872 5875 5879 5883 5887 5891 5896 5901 5907 5910 5914 5917 5921 5924 5927 5930 5933 5935 5939 5941 5942 5945 5947 5948 5951 5953 5954 5957 5958 5960 5961 5962 5962 5964 5966 5970 5975 5972 5974 5975 5976 5977 5973 5970 5969
5860 5865 5869 5872 5875 5879 5882 5886 5891 5896 5901 5906 5910 5914 5917 5920 5924 5927 5930 5934 5938 5941 5943 5943 5945 5948 5950 5952 5954 5956 5958 5961 5961 5962 5963 5966 5970 5971 5970 5971 5972 5974 5977 5978 5974 5971 5970
5857 5860 5864 5868 5872 5875 5878 5882 5886 5891 5895 5901 5906 5910 5914 5917 5920 5924 5929 5932 5934 5937 5939 5942 5944 5946 5949 5952 5954 5956 5958 5960 5961 5962 5963 5966 5974 5968 5969 5970 5971 5975 5978 5973 5972 5971 5969
5854 5857 5860 5864 5867 5871 5874 5877 5881 5885 5890 5895 5900 5905 5909 5913 5918 5921 5924 5929 5932 5934 5937 5940 5942 5945 5948 5950 5953 5955 5957 5959 5960 5961 5962 5965 5968 5968 5969 5969 5971 5979 5972 5972 5970 5970 5972
5849 5853 5856 5859 5862 5866 5869 5872 5876 5881 5885 5889 5895 5900 5905 5909 5912 5916 5923 5925 5929 5932 5935 5937 5940 5943 5945 5949 5952 5954 5956 5957 5959 5961 5963 5966 5965 5966 5967 5968 5969 5972 5971 5972 5971 5970 5971
5846 5847 5850 5853 5856 5860 5863 5867 5871 5875 5880 5884 5889 5894 5899 5904 5908 5914 5917 5921 5925 5930 5932 5934 5939 5941 5943 5946 5949 5951 5954 5956 5958 5960 5961 5962 5963 5965 5966 5967 5968 5970 5971 5970 5970 5973 5977
5841 5842 5844 5846 5849 5852 5856 5861 5864 5869 5873 5878 5883 5888 5893 5898 5905 5909 5913 5917 5921 5924 5929 5931 5935 5938 5941 5944 5946 5949 5952 5954 5957 5959 5961 5962 5963 5964 5965 5966 5968 5969 5968 5972 5975 5977 5977
5837 5837 5837 5838 5841 5844 5848 5853 5857 5861 5867 5872 5877 5882 5887 5892 5897 5902 5907 5912 5916 5925 5926 5930 5932 5935 5938 5941 5944 5947 5949 5952 5955 5957 5960 5962 5963 5964 5965 5965 5966 5971 5970 5974 5976 5979 5975
5830 5829 5829 5831 5833 5835 5839 5844 5849 5854 5859 5865 5871 5876 5880 5885 5890 5895 5901 5906 5914 5920 5927 5932 5928 5931 5935 5938 5941 5943 5947 5949 5953 5956 5959 5966 5965 5961 5963 5964 5965 5970 5970 5970 5973 5976 5977
5821 5821 5821 5822 5823 5826 5829 5834 5839 5845 5850 5857 5862 5868 5874 5879 5883 5888 5894 5902 5908 5913 5916 5921 5925 5929 5932 5935 5938 5940 5943 5947 5949 5953 5954 5960 5962 5960 5961 5963 5964 5965 5966 5970 5973 5975 5974
5809 5810 5811 5812 5815 5817 5820 5824 5829 5835 5841 5848 5855 5860 5864 5872 5876 5881 5888 5897 5902 5902 5905 5913 5919 5927 5928 5932 5934 5937 5941 5944 5946 5950 5952 5955 5961 5958 5959 5961 5963 5965 5966 5968 5971 5971 5972
5798 5798 5799 5802 5804 5807 5810 5815 5820 5825 5831 5838 5846 5851 5858 5863 5870 5876 5882 5890 5894 5896 5901 5908 5913 5916 5927 5929 5932 5933 5936 5940 5942 5945 5949 5953 5960 5957 5958 5959 5960 5961 5962 5966 5969 5969 5968
5787 5787 5788 5790 5794 5798 5802 5805 5810 5816 5821 5828 5835 5840 5850 5856 5862 5869 5876 5881 5885 5890 5896 5903 5908 5912 5916 5923 5929 5929 5933 5938 5936 5941 5944 5949 5952 5958 5958 5958 5957 5958 5960 5961 5963 5966 5965
5777 5777 5777 5779 5782 5787 5792 5797 5802 5807 5813 5819 5825 5833 5840 5848 5854 5860 5867 5874 5879 5882 5890 5894 5900 5905 5909 5913 5921 5925 5928 5929 5930 5936 5938 5943 5947 5955 5958 5958 5958 5955 5956 5957 5958 5963 5963
5768 5767 5768 5767 5769 5775 5782 5788 5794 5799 5805 5811 5818 5825 5831 5838 5847 5853 5859 5866 5870 5874 5884 5888 5893 5897 5904 5909 5914 5920 5922 5923 5926 5930 5934 5939 5943 5948 5954 5954 5954 5955 5953 5954 5954 5955 5955
5761 5759 5759 5758 5759 5763 5771 5778 5785 5791 5797 5803 5807 5809 5814 5827 5835 5844 5850 5858 5864 5869 5875 5881 5887 5893 5898 5903 5909 5916 5919 5921 5919 5924 5929 5934 5937 5940 5944 5950 5948 5950 5950 5950 5950 5951 5950
5754 5753 5752 5753 5753 5754 5762 5769 5776 5783 5788 5792 5798 5806 5814 5820 5826 5834 5843 5851 5857 5861 5867 5873 5879 5886 5891 5898 5904 5911 5914 5917 5915 5919 5924 5927 5931 5934 5939 5943 5943 5943 5944 5945 5945 5946 5946
5746 5746 5745 5746 5747 5747 5753 5760 5768 5774 5781 5787 5795 5800 5806 5812 5820 5827 5832 5841 5847 5853 5860 5865 5870 5875 5885 5887 5892 5898 5906 5912 5913 5912 5917 5921 5924 5929 5933 5937 5936 5941 5943 5937 5937 5937 5938
5740 5739 5739 5739 5740 5741 5745 5752 5759 5767 5774 5780 5786 5792 5799 5806 5811 5814 5823 5830 5836 5841 5850 5857 5862 5868 5874 5879 5887 5893 5900 5905 5908 5910 5914 5915 5919 5923 5926 5929 5932 5936 5933 5931 5929 5932 5932
5734 5733 5733 5733 5734 5735 5738 5745 5752 5759 5767 5773 5779 5786 5792 5798 5801 5810 5813 5820 5827 5834 5842 5849 5855 5861 5867 5874 5880 5884 5891 5898 5898 5900 5904 5911 5917 5916 5918 5920 5924 5930 5919 5916 5922 5924 5922
5728 5727 5727 5726 5727 5730 5733 5739 5746 5753 5760 5766 5772 5778 5785 5791 5796 5803 5804 5809 5814 5825 5831 5839 5849 5854 5861 5866 5871 5878 5884 5890 5892 5892 5896 5899 5901 5905 5909 5910 5915 5915 5908 5910 5916 5917 5915
5723 5721 5720 5719 5722 5724 5727 5733 5740 5747 5754 5761 5767 5772 5778 5784 5788 5792 5796 5802 5807 5813 5818 5828 5835 5843 5850 5856 5864 5870 5877 5882 5885 5886 5889 5889 5895 5896 5899 5901 5904 5900 5901 5904 5903 5905 5907
5718 5716 5713 5714 5717 5720 5723 5728 5735 5742 5748 5754 5760 5767 5773 5778 5782 5788 5795 5800 5803 5808 5816 5818 5824 5832 5840 5848 5853 5860 5868 5874 5869 5873 5879 5878 5879 5885 5890 5889 5887 5889 5890 5893 5896 5896 5896